Погода в Николаевке

Россия / Приморский край     43°53′16″N   132°26′51″E
темп.,
°C
ветер,
м/с
пор.,
м/с
влажн.,
%
обл.,
%
осадки,
мм/ч
давл.,
гПа
погр.,
м
19 января, вт
вт1901:00−26сз3585100 0.0 102596
04:00−30зсз128693 0.0 102719
07:00−31ю11830 0.0 103019
10:00−28ююз11840 0.0 103233
13:00−23зсз12730 0.0 1033435
16:00−21з01700 0.0 1032426
19:00−26юв22770 0.0 103420
22:00−26юв22760 0.0 103420
20 января, ср
ср2001:00−25юв12750 0.0 103320
04:00−24юв117128 0.0 103320
07:00−24юв127026 0.0 103320
10:00−19вюв117813 0.0 103225
13:00−12зюз23750 0.0 1029283
16:00−7ююз26769 0.0 1025463
19:00−9ю378343 0.0 1024131
22:00−9ююз4128663 0.0 1023341
21 января, чт
чт2101:00−8ююз498670 0.0 1021179
04:00−7ююз4108538 0.0 1022160
07:00−9юз338620 0.0 102230
10:00−9юз128940 0.0 102424
13:00−5зсз1282100 0.0 1022278
16:00−4ссв0180100 0.0 1020241
19:00−9всв1188100 0.0 101921
22:00−10с1194100 0.0 101921
22 января, пт
пт2201:00−10ссз2297100 0.4 101754
04:00−13сз1297100 1.1 101738
07:00−16ссз2696100 0.2 1019270
10:00−17ссв149593 0.3 1023181
13:00−13с368882 0.0 1025538
16:00−12ссв358377 0.0 1026463
19:00−18всв12900 0.0 102820
22:00−19в11890 0.0 103020
23 января, сб
сб2301:00−21в11870 0.0 103120
04:00−21всв12900 0.0 103220
07:00−22всв12920 0.0 103220
10:00−19всв11900 0.0 103453
13:00−14с22800 0.0 1032341
16:00−12с23780 0.0 1030373
19:00−18св12890 0.0 103120
22:00−20в11890 0.0 103220